Etusivu
METAR-TAF:

METAR-TAF

Lentoasemat :

Pajala-Ylläksen lentoasema

Pajala, Ruotsi

Leveyspiiri: 67-14-44N, Pituuspiiri: 023-04-08E, korkeus merenpinnasta: 165 m

Tämänhetkinen sää

Tämä raportti tehtiin 42 minuuttia sitten, kello 20.20 UTC
tyyntä
Lämpötila 0°C
Kosteus 93%
Ilmanpaine 1002 hPa
Näkyvyys 10 km tai enemmän

METAR: ESUP 182020Z AUTO 00000KT 9999 NCD M00/M01 Q1002

Aika: 23:02 (21:02 UTC)


TAF: puuttuu

Säähavainnot ja -ennusteet yli 4000 lentoasemalta (METAR- ja TAF-raportit).

Käytössä olevat sääasemat on merkitty karttaan keltaisilla ja punaisilla pisteillä.

Aseta hiiri pisteen päälle nähdäksesi sääaseman nimen.

Klikkaa sitten nähdäksesi säähavainnot ja -ennusteet.

Kartan vaihtaminen: klikkaa mustalla rastilla varustettuja vihreitä pisteitä, niin voit zoomata sisään; viivalla varustettua vihreää pistettä, niin voit zoomata ulos tai vihreitä nuolia, niin pääset viereisille kartoille.


METAR-TAF: